Location: Casco Millpond
(44.5581°N, 87.6111°W)
Time: 21:00:45
(UTC+00:00)

CZ-2D R/B - Pass Details

Date: 16 January 2026
Orbit: 389 x 399 km, 97.4° (Epoch: 10 February)

Event Time Altitude Azimuth Distance (km) Brightness Sun altitude
Rises 12:14:03 0° 17° (NNE) 2,323 6.5 -12.1°
Reaches altitude 10° 12:16:05 10° 23° (NNE) 1,455 5.6 -11.8°
Maximum altitude 12:19:06 49° 100° (E) 520 3.7 -11.3°
Drops below altitude 10° 12:22:05 10° 177° (S) 1,431 5.7 -10.8°
Sets 12:24:04 0° 183° (S) 2,279 6.7 -10.4°
